Location: Del Amo
(33.8464°N, 118.2104°W)
Time: 03:56:51
(UTC+00:00)

Courier 1B - Pass Details

Date: 17 September 2024
Orbit: 962 x 1208 km, 28.3° (Epoch: 08 October)

Event Time Altitude Azimuth Distance (km) Brightness Sun altitude
Rises 02:50:20 0° 269° (W) 4,053 12.6 -11.8°
Reaches altitude 10° 02:53:43 10° 256° (WSW) 3,113 11.2 -12.5°
Maximum altitude 02:59:42 25° 206° (SSW) 2,232 9.5 -13.7°
Drops below altitude 10° 03:05:45 10° 155° (SSE) 3,131 9.8 -15.0°
Enters shadow 03:07:04 - 149° (SSE) 3,478 10.0 -15.2°
